RH
69 72 77 82 90 94 90 82 87 80 76 75 74 73 73 70 67 60 44 38 42 48 53 56 57 58 62 62 58 54 48 46 51 53 54 49 47 50 50 58 57 51 54 48 51 52 58 60 58
75 82 88 94 99 96 95 90 89 80 75 75 79 82 79 75 71 56 41 37 40 47 52 54 54 57 60 55 51 51 53 57 63 62 59 64 68 73 65 59 59 59 57 57 61 59 60 62 61
78 84 87 96 96 91 94 91 84 82 79 78 82 83 83 76 72 50 39 35 40 45 49 49 52 56 56 54 53 57 59 66 62 64 56 60 63 67 63 57 62 63 62 65 63 59 61 57 68
73 79 88 91 88 84 86 86 81 81 81 79 80 83 83 76 67 51 36 34 37 42 45 50 53 53 54 53 57 60 58 59 57 57 53 56 56 58 55 57 55 59 61 49 46 45 54 58 71
77 85 90 91 91 83 83 87 87 83 82 79 79 83 84 79 63 50 35 33 35 40 44 47 49 49 55 60 57 57 51 50 50 48 54 57 56 51 51 54 55 51 40 38 39 43 52 66 78
88 89 94 94 85 85 86 86 86 85 83 78 79 79 83 74 63 50 36 32 34 40 44 45 46 52 55 54 51 50 47 51 44 46 51 55 51 49 49 55 57 44 35 38 39 44 57 71 79
89 93 95 89 86 91 88 86 88 82 79 77 75 80 79 70 64 50 37 34 34 40 40 44 47 49 48 51 46 46 46 39 41 46 52 54 48 45 50 56 47 36 35 38 42 49 55 66 77
88 89 86 88 95 91 90 90 92 85 84 78 75 76 75 70 62 55 42 36 33 35 36 41 44 42 43 41 39 41 36 38 50 49 49 43 39 47 59 51 45 35 34 37 43 55 57 61 68
83 90 93 86 83 86 91 93 92 91 88 80 74 72 72 69 66 58 42 34 30 32 36 38 39 39 39 39 37 35 36 49 45 41 42 40 43 52 55 52 51 42 35 40 48 53 59 63 67
82 87 82 81 82 88 88 96 91 97 87 83 83 76 77 67 64 54 40 32 29 31 35 35 36 38 39 37 34 33 48 49 43 34 33 37 41 45 47 50 54 50 49 56 56 55 58 65 72
78 81 74 77 76 85 89 95 89 95 95 83 79 77 78 69 65 58 44 32 29 30 33 34 37 38 40 34 34 38 58 52 53 39 33 32 35 40 45 49 52 52 61 58 57 60 65 63 61
74 71 72 72 75 79 87 86 85 92 92 88 83 78 76 71 69 63 50 39 31 28 29 34 37 38 37 34 37 39 52 58 56 49 48 42 40 50 55 54 54 58 65 71 61 59 69 69 60
71 67 62 60 60 70 82 82 78 83 92 93 84 81 82 74 74 67 57 44 33 28 28 32 34 35 35 35 37 35 42 59 58 54 48 52 48 63 62 61 57 59 54 59 54 55 67 62 55
66 59 55 51 54 67 77 82 80 83 86 90 84 79 82 76 76 74 63 47 44 33 30 30 32 33 35 37 39 37 43 62 62 61 50 53 57 60 62 59 57 52 47 49 47 56 60 57 54
53 52 47 52 58 67 75 79 81 81 85 86 80 75 77 74 76 74 65 52 43 36 32 32 32 32 36 41 47 42 55 62 62 61 54 53 55 61 58 59 59 58 45 43 44 52 56 58 56
42 44 41 52 57 70 71 79 78 77 86 87 78 66 69 72 75 74 66 53 45 48 43 37 36 33 35 40 41 48 53 58 70 69 53 58 67 61 56 54 56 59 53 50 45 48 51 54 57
40 45 43 38 54 64 64 74 72 74 69 78 65 59 64 67 74 71 66 53 45 45 47 40 40 36 35 43 60 46 62 60 63 56 57 60 64 67 63 55 58 55 55 46 49 48 44 49 55
36 41 44 40 51 46 54 60 65 73 77 74 70 62 55 60 72 70 66 53 48 45 46 41 40 41 41 43 52 49 58 55 53 52 57 64 63 61 59 60 60 59 54 49 50 45 45 46 50
33 36 40 45 35 32 45 51 61 66 79 77 72 70 64 55 63 67 67 54 47 47 48 45 39 39 44 43 50 56 54 53 54 56 60 62 61 55 55 53 52 54 48 50 49 43 44 42 42
29 31 36 37 40 40 52 49 58 64 73 74 77 75 69 59 56 58 63 57 46 46 46 45 44 39 41 37 42 52 53 53 60 58 52 62 59 54 53 51 53 53 52 49 50 43 41 40 39
27 25 36 40 37 49 51 60 64 62 73 70 74 77 73 74 57 57 55 57 51 45 43 44 44 39 39 39 40 46 59 58 63 53 48 54 58 51 50 51 49 44 47 49 48 44 42 41 41
29 22 32 36 30 29 45 68 64 64 68 63 72 77 75 73 64 58 53 52 51 47 42 44 45 42 37 36 40 43 50 53 56 54 49 47 54 59 60 51 52 46 40 43 47 46 41 41 40
25 24 24 32 30 27 29 42 48 71 72 66 66 74 78 72 71 57 54 49 48 48 44 44 44 45 38 34 35 42 44 48 52 57 52 50 50 53 58 55 53 49 42 38 40 44 44 38 38
24 25 24 25 28 29 26 26 30 56 53 49 60 68 75 71 66 58 53 51 49 49 45 46 45 45 41 34 34 40 41 44 51 51 53 48 42 41 48 53 50 54 48 42 39 40 41 39 36
24 25 27 26 29 29 26 26 24 34 39 38 40 56 68 69 68 63 58 46 44 43 40 44 44 44 41 38 33 34 37 43 52 52 54 48 44 42 42 48 48 51 50 50 42 39 38 37 36
24 26 28 25 29 29 28 28 26 26 29 29 33 38 62 69 66 64 59 52 42 40 41 42 45 42 40 35 33 32 33 41 47 51 50 48 46 45 48 51 55 55 52 52 49 39 35 35 35
29 32 27 29 29 28 28 28 27 33 35 33 33 34 40 51 61 59 65 56 42 39 38 39 43 46 42 37 32 29 32 40 44 48 49 49 48 45 47 44 42 51 52 47 46 48 42 34 33
30 30 32 32 34 33 30 33 41 40 41 42 38 37 35 40 49 52 65 59 46 37 35 37 39 43 46 42 36 32 28 32 37 43 43 43 43 44 46 43 44 45 45 45 39 43 47 41 31
34 34 35 35 39 40 38 40 37 44 43 43 41 37 32 34 37 50 62 62 58 65 54 42 37 39 38 40 39 37 32 25 29 35 39 39 40 41 45 42 43 42 40 42 38 34 38 40 40
29 33 36 42 41 43 45 40 30 32 34 38 39 36 33 34 37 47 62 67 64 68 71 57 46 35 36 38 38 37 35 32 23 28 33 36 36 38 44 43 42 43 41 38 36 34 30 34 35